Presure
137 138 140 135 147 125 142 149 139 132 135 143 143 143 134 137 141 121 129 138 126 162 139 142 129 122 143 140 182 176 187 185 190
141 123 143 128 133 149 140 142 143 123 131 136 144 145 138 144 149 129 125 142 141 128 100 149 149 153 152 186 189 176 190 182 119
141 139 142 143 145 127 147 143 143 134 121 133 134 105 112 152 114 103 97 127 125 135 120 162 100 158 182 178 174 177 186 189 188
140 140 148 151 141 117 142 133 137 139 126 140 98 118 98 95 94 118 92 93 108 145 119 131 177 194 174 145 180 180 182 188 188
144 115 132 153 153 144 146 97 97 90 90 90 94 85 89 91 96 92 103 101 107 97 95 174 184 192 182 182 185 182 185 185 182
124 122 135 153 138 93 112 101 89 87 100 90 122 152 140 96 90 93 94 92 94 153 177 181 98 184 179 187 189 180 183 186 187
138 148 138 138 81 89 90 88 88 102 101 103 169 97 93 90 87 89 90 95 101 159 141 139 150 99 190 192 203 204 190 185 194
140 101 146 95 101 88 90 90 80 125 124 95 92 87 109 104 94 92 102 93 95 181 107 124 109 190 173 105 192 192 189 190 195
142 96 99 103 93 100 113 88 90 90 90 89 88 101 132 92 141 138 97 89 106 108 108 108 110 107 104 108 137 195 189 191 193
158 133 139 91 94 86 91 89 84 88 89 92 86 138 200 110 117 160 101 95 100 127 138 107 104 105 106 189 193 202 201 190 181
141 174 240 165 100 90 90 90 85 87 87 125 158 192 116 180 185 162 104 97 92 95 108 111 98 105 109 144 206 199 190 189 194
109 103 210 119 93 88 86 87 92 88 147 214 113 143 180 221 103 86 205 112 110 101 97 118 107 102 104 201 196 193 192 183 193
105 107 110 88 84 85 88 89 100 104 204 229 216 224 203 205 117 93 97 115 95 105 108 106 124 108 103 198 193 188 186 194 194
102 101 100 101 101 183 101 101 99 100 147 206 123 218 184 119 99 121 101 87 99 112 115 105 206 123 104 194 193 193 197 193 196
135 101 100 117 96 95 97 99 93 115 183 199 114 103 93 170 97 89 182 116 126 138 206 200 172 201 197 179 194 203 203 199 196
84 103 99 105 87 83 93 115 94 88 194 199 84 143 170 97 84 90 102 111 146 214 210 180 134 169 183 180 183 199 204 200 193
133 156 91 88 85 88 85 100 125 196 193 192 152 185 187 158 186 108 184 176 162 185 192 191 190 192 193 184 184 190 199 194 197
145 205 230 85 161 168 175 223 239 208 194 88 173 100 97 97 182 189 151 138 168 173 202 182 181 174 185 189 189 189 189 196 203
124 215 203 235 231 238 240 227 238 238 201 189 120 104 132 119 104 163 189 179 187 195 183 184 186 183 189 188 190 182 189 196 205
208 210 220 217 237 185 195 240 115 179 96 201 193 134 103 181 178 180 181 185 179 182 187 194 189 184 189 194 191 189 193 202 207
Wind_Speed
43 44 44 40 48 31 47 50 47 38 40 46 48 48 39 41 44 30 34 49 36 64 49 52 42 39 59 55 72 66 64 60 63
48 37 49 37 40 53 48 49 50 28 36 42 51 50 45 50 52 35 36 51 53 42 25 61 59 63 60 76 71 67 66 61 41
49 48 52 53 54 35 55 52 52 42 32 39 40 20 25 58 31 23 23 37 38 51 41 71 31 68 79 73 69 69 68 65 61
47 47 57 60 52 32 52 42 46 48 39 51 18 29 19 19 20 29 23 25 29 59 40 50 84 80 77 57 72 69 68 67 63
52 29 46 64 65 54 58 16 16 13 14 15 18 15 21 23 23 26 29 30 33 31 29 82 80 78 77 76 75 69 70 65 59
35 35 47 67 50 24 32 20 15 15 21 20 32 63 56 25 23 27 29 30 32 69 84 84 36 79 76 77 76 69 68 67 62
53 68 51 50 21 21 19 20 19 26 28 26 79 28 26 26 21 27 28 33 39 74 58 58 65 40 79 77 76 70 69 66 64
55 29 61 25 26 23 22 22 21 51 45 28 28 24 38 37 31 32 37 36 39 84 43 48 43 81 70 45 74 62 67 64 63
60 31 30 33 27 31 45 26 27 28 29 27 27 39 53 30 65 63 39 35 44 45 45 46 46 48 49 51 59 68 66 64 62
80 52 60 29 30 28 29 29 25 29 32 35 27 64 94 46 50 70 40 43 45 53 61 50 49 51 52 67 71 65 63 63 61
56 61 80 58 35 30 32 33 29 33 34 51 70 78 51 71 73 66 46 44 44 49 53 55 53 54 57 61 63 63 62 63 64
45 40 75 39 32 32 32 33 39 34 61 81 44 61 71 79 47 40 63 54 56 54 54 59 58 58 60 63 62 63 64 65 65
45 42 43 32 34 35 37 39 47 49 70 74 74 73 65 66 59 49 53 59 54 59 61 60 65 62 63 62 63 65 66 69 68
43 39 40 40 44 71 46 48 49 50 58 66 60 66 64 62 51 64 56 47 59 64 66 64 61 63 66 62 65 67 69 70 71
53 45 44 56 43 44 47 50 45 60 63 69 43 55 48 57 52 50 63 66 65 65 60 61 61 62 63 65 68 69 70 71 73
31 54 40 48 41 34 48 58 49 46 69 66 39 58 61 53 47 56 63 69 67 60 61 62 65 61 66 67 68 69 72 73 74
63 49 38 41 43 48 41 59 61 69 70 69 62 69 69 65 67 67 64 65 66 65 64 65 65 67 68 70 71 73 74 77 79
56 68 68 40 61 64 68 71 74 73 71 50 65 59 56 57 72 68 66 66 73 72 67 70 70 72 71 72 74 75 78 81 84
61 67 67 70 70 72 71 70 69 71 72 70 64 65 63 67 67 71 69 69 70 71 73 74 72 72 73 75 77 78 81 85 86
67 66 68 68 70 68 72 71 59 65 61 72 71 63 67 77 74 77 74 74 75 76 76 77 77 75 77 79 79 81 84 87 89
Wind_Direction
256 256 258 262 261 264 262 262 266 270 274 271 271 274 278 283 282 290 295 295 296 295 294 299 290 295 295 294 301 303 307 304 310
255 254 260 266 267 262 264 265 265 274 276 277 272 273 277 280 285 290 296 291 290 293 309 295 298 301 300 302 303 302 307 304 294
256 258 258 260 260 275 262 265 266 272 277 275 275 286 288 280 288 301 304 295 294 299 300 295 304 299 299 299 298 301 306 307 309
258 259 258 260 261 261 268 273 272 272 271 271 292 286 297 300 305 293 308 308 306 292 301 301 295 297 296 298 299 302 303 307 307
263 259 262 262 261 262 263 266 274 287 295 297 291 292 297 299 301 303 300 302 301 305 307 294 295 297 296 298 298 300 303 304 303
259 260 262 266 268 264 264 258 274 284 276 290 276 278 280 290 303 301 305 308 307 293 292 293 304 294 295 296 299 298 299 303 304
266 265 269 269 258 257 264 272 277 270 280 283 277 287 288 292 303 302 308 307 303 292 295 295 294 302 296 297 299 298 298 300 302
268 244 263 246 246 261 267 273 277 274 276 287 289 294 284 285 296 298 293 306 305 289 298 298 299 291 295 301 296 295 296 298 298
268 245 243 254 251 261 265 269 276 282 287 288 292 290 284 292 287 283 294 309 295 295 296 298 298 296 297 300 297 293 293 294 295
269 257 260 250 252 257 263 270 273 282 287 289 292 282 281 285 285 285 297 301 298 290 290 296 298 297 298 291 291 290 290 292 292
257 262 269 262 260 263 269 275 281 283 285 279 280 280 282 284 284 286 290 298 303 302 294 293 300 297 298 294 286 286 288 290 290
255 256 267 258 255 266 275 278 277 280 278 277 286 282 281 285 285 303 289 288 289 296 301 293 295 298 299 285 285 287 288 289 288
256 258 263 261 265 268 271 275 277 283 280 282 282 286 285 286 284 295 296 289 299 295 293 295 294 295 298 284 286 287 289 287 287
259 260 260 260 264 269 273 277 278 281 282 279 276 283 284 280 291 283 292 300 296 292 291 295 284 293 297 284 285 286 285 287 286
263 265 263 262 264 272 275 274 281 277 278 275 283 283 288 287 291 297 285 286 290 291 284 284 287 283 285 286 286 284 284 284 286
263 263 265 267 273 277 277 275 281 284 272 275 292 282 282 289 296 294 293 289 288 283 281 288 292 285 287 287 287 287 285 285 287
261 268 266 271 280 281 282 276 275 269 270 273 278 276 278 281 281 289 286 285 287 287 286 285 286 287 288 288 289 289 287 287 286
268 265 267 275 269 270 271 269 269 270 269 289 274 285 288 289 280 282 288 287 283 285 285 286 286 286 289 289 289 290 290 289 286
262 266 267 270 270 269 269 269 270 269 270 270 280 285 282 287 291 282 283 282 282 283 283 284 286 286 288 288 288 290 290 288 286
264 265 268 268 268 270 271 271 275 272 279 272 272 277 289 273 276 279 280 282 283 283 285 287 287 287 289 289 289 289 288 288 287